Location: Astronomical Observatory "G. J. Rheticus" in Feltre (Italy)
(46.0730°N, 11.9276°E)
Time: 19:01:19
(UTC+01:00)

ISS - Visible Passes

Search period start: 27 January 2021 00:00
Search period end: 06 February 2021 00:00
Orbit: 418 x 421 km, 51.6° (Epoch: 28 January)

Date Brightness Start Highest point End Pass type
(mag) Time Alt. Az. Time Alt. Az. Time Alt. Az.
27 Jan -2.7 18:00:27 10° WNW 18:03:35 34° N 18:06:14 13° NE visible
27 Jan -1.4 19:37:49 10° WNW 19:39:13 20° NW 19:39:13 20° NW visible
28 Jan -2.7 18:50:25 10° WNW 18:53:29 31° N 18:53:50 30° NNE visible
29 Jan -2.5 18:02:57 10° WNW 18:06:00 30° N 18:08:28 14° ENE visible
29 Jan -1.5 19:39:57 10° WNW 19:41:27 23° NW 19:41:27 23° NW visible
30 Jan -3.1 18:52:37 10° WNW 18:55:51 40° NNE 18:56:07 39° NNE visible
31 Jan -2.8 18:05:14 10° WNW 18:08:22 34° N 18:10:50 14° ENE visible
31 Jan -1.8 19:42:02 10° WNW 19:43:49 29° WNW 19:43:49 29° WNW visible
01 Feb -3.8 18:54:39 10° WNW 18:58:03 71° NNE 18:58:37 55° E visible
02 Feb -3.5 18:07:18 10° WNW 18:10:36 51° NNE 18:13:31 13° E visible
02 Feb -1.8 19:44:16 10° WNW 19:46:30 28° WSW 19:46:30 28° WSW visible
03 Feb -3.1 18:56:44 10° WNW 19:00:02 51° SW 19:01:32 27° SSE visible
04 Feb -3.6 18:09:16 10° WNW 18:12:40 80° SSW 18:16:02 10° ESE visible
04 Feb -0.9 19:47:16 10° WSW 19:49:00 13° SW 19:49:45 13° SSW visible
05 Feb -1.3 18:59:09 10° W 19:01:46 21° SW 19:04:23 10° S visible
